Location: Quesnel
(52.9830°N, 122.4830°W)
Time: 10:22:26
(UTC-08:00)

ISS - All Passes

Search period start: 04 December 2016 00:00
Search period end: 14 December 2016 00:00
Orbit: 401 x 410 km, 51.6° (Epoch: 04 December)

Date Brightness Start Highest point End Pass type
(mag) Time Alt. Az. Time Alt. Az. Time Alt. Az.
04 Dec - 17:00:49 10° S 17:02:34 14° SE 17:04:20 10° ESE visible
04 Dec - 18:35:19 10° SW 18:38:29 43° SSE 18:41:39 10° E visible
04 Dec - 20:11:30 10° W 20:14:49 71° S 20:18:08 10° E visible
04 Dec - 21:47:58 10° W 21:51:09 43° SSW 21:54:19 10° SE night (unlit)
04 Dec - 23:25:21 10° WSW 23:27:03 13° SW 23:28:46 10° S night (unlit)
05 Dec - 17:43:38 10° SW 17:46:38 32° SSE 17:49:38 10° E visible
05 Dec - 19:19:36 10° WSW 19:22:53 68° S 19:26:11 10° E visible
05 Dec - 20:56:00 10° W 20:59:16 55° SSW 21:02:31 10° ESE night (unlit)
05 Dec - 22:32:50 10° W 22:35:20 20° SSW 22:37:49 10° SSE night (unlit)
06 Dec - 16:52:08 10° SSW 16:54:49 23° SSE 16:57:31 10° E visible
06 Dec - 18:27:41 10° WSW 18:30:57 60° SSE 18:34:13 10° E visible
06 Dec - 20:04:03 10° W 20:07:21 65° S 20:10:38 10° ESE visible
06 Dec - 21:40:39 10° W 21:43:32 28° SSW 21:46:26 10° SSE night (unlit)
07 Dec - 16:00:57 10° S 16:03:03 16° SE 16:05:10 10° ESE daylight
07 Dec - 17:35:50 10° WSW 17:39:02 48° SSE 17:42:14 10° E visible
07 Dec - 19:12:05 10° W 19:15:23 71° S 19:18:41 10° E visible
07 Dec - 20:48:34 10° W 20:51:42 38° SSW 20:54:48 10° SE night (unlit)
07 Dec - 22:26:23 10° WSW 22:27:31 11° SW 22:28:38 10° SSW night (unlit)
08 Dec - 15:10:43 10° SSE 15:11:20 10° SE 15:11:57 10° SE daylight
08 Dec - 16:44:04 10° SW 16:47:07 36° SSE 16:50:13 10° E visible
08 Dec - 18:20:07 10° W 18:23:25 70° S 18:26:43 10° E visible
08 Dec - 19:56:33 10° W 19:59:47 50° SSW 20:03:00 10° ESE visible
08 Dec - 21:33:32 10° WSW 21:35:47 17° SW 21:38:02 10° S night (unlit)
09 Dec - 15:52:27 10° SSW 15:55:16 26° SSE 15:58:06 10° E daylight
09 Dec - 17:28:09 10° WSW 17:31:26 64° S 17:34:44 10° E visible
09 Dec - 19:04:33 10° W 19:07:50 62° S 19:11:06 10° ESE visible
09 Dec - 20:41:13 10° W 20:43:59 25° SSW 20:46:44 10° SSE night (unlit)
10 Dec - 15:01:05 10° SSW 15:03:26 18° SE 15:05:48 10° E daylight
10 Dec - 16:36:15 10° WSW 16:39:28 53° SSE 16:42:42 10° E visible
10 Dec - 18:12:33 10° W 18:15:51 69° S 18:19:08 10° ESE visible
10 Dec - 19:49:04 10° W 19:52:07 34° SSW 19:55:08 10° SE visible
11 Dec - 14:10:14 10° SSE 14:11:40 12° SE 14:13:06 10° ESE daylight
11 Dec - 15:44:24 10° SW 15:47:31 41° SSE 15:50:39 10° E daylight
11 Dec - 17:20:32 10° W 17:23:50 71° S 17:27:08 10° E visible
11 Dec - 18:56:59 10° W 19:00:11 45° SSW 19:03:22 10° SE visible
11 Dec - 20:34:10 10° WSW 20:36:07 15° SW 20:38:03 10° S night (unlit)
12 Dec - 14:52:40 10° SW 14:55:36 30° SSE 14:58:32 10° E daylight
12 Dec - 16:28:32 10° WSW 16:31:49 67° S 16:35:06 10° E visible
12 Dec - 18:04:56 10° W 18:08:12 57° SSW 18:11:28 10° ESE visible
12 Dec - 19:41:41 10° W 19:44:18 21° SSW 19:46:53 10° SSE visible
13 Dec - 14:01:09 10° SSW 14:03:43 21° SSE 14:06:17 10° E daylight
13 Dec - 15:36:33 10° WSW 15:39:48 57° SSE 15:43:03 10° E daylight
13 Dec - 17:12:54 10° W 17:16:11 67° S 17:19:28 10° ESE visible
13 Dec - 18:49:27 10° W 18:52:24 30° SSW 18:55:21 10° SE visible
